sat.trackr.live / text

‹ back to catalog

STARLINK-31049

NORAD 58543 · 2023-192N

PAYLOAD ACTIVE UNKNOWN

§ Identity

Operator
Country
US
Launch date
2023-12-08
Launch site
AFWTR
Launch vehicle
Mass (kg)
RCS (m²)

Purposes: comms

External: N2YO · Heavens-Above · Gunter

§ Orbital elements

Epoch: 2026-05-25T03:52:29.481312Z

Period
93.85 min
Inclination
53.1613°
Eccentricity
0.0001163
Mean motion
15.34389900 rev/d
Perigee alt
461.9 km
Apogee alt
463.5 km
Semi-major
6,840.9 km
B*
2.3684e-5
RAAN
66.8215°
Arg perigee
100.1934°
Mean anomaly
259.9200°
Rev number
13,770

§ Raw data

STARLINK-310491 58543U 23192N   26145.16145233  .00000424  00000+0  23684-4 0  99912 58543  53.1613  66.8215 0001163 100.1934 259.9200 15.34389900137700

JSON: /api/v1/satellites/58543 · /tle

For live sub-satellite position, see the globe view (requires WebGL).

§ Visibility from observer

Set your observer location to see the next 7 days of passes ≥ 10°. The values pass through the URL so the page stays shareable.

No JS? Fill the form by hand. The geolocation button needs JavaScript.